Time,TemperatureF,DewpointF,PressureIn,WindDirection,WindDirectionDegrees,WindSpeedMPH,WindSpeedGustMPH,Humidity,HourlyPrecipIn,Conditions,Clouds,dailyrainin,SoftwareType,DateUTC
2013-06-27 00:01:00,61.6,59.0,30.06,NNW,340,0.0,0.0,91,0.00,,CLR,0.00,VWS V14.01,2013-06-27 07:01:00,
2013-06-27 00:06:00,61.5,58.8,30.06,NNW,340,0.0,0.0,91,0.00,,CLR,0.00,VWS V14.01,2013-06-27 07:06:00,
2013-06-27 00:11:00,61.3,58.7,30.06,NNW,340,0.0,0.0,91,0.00,,CLR,0.00,VWS V14.01,2013-06-27 07:11:00,
2013-06-27 00:16:00,61.0,58.0,30.05,NNW,340,0.0,0.0,90,0.00,,CLR,0.00,VWS V14.01,2013-06-27 07:16:00,
2013-06-27 00:21:00,60.5,57.9,30.05,NNW,340,0.0,0.0,91,0.00,,CLR,0.00,VWS V14.01,2013-06-27 07:21:00,
2013-06-27 00:26:00,60.4,57.8,30.06,NNW,340,0.0,0.0,91,0.00,,CLR,0.00,VWS V14.01,2013-06-27 07:26:00,
2013-06-27 00:31:00,60.1,57.5,30.06,NNW,340,0.0,0.0,91,0.00,,CLR,0.00,VWS V14.01,2013-06-27 07:31:00,
2013-06-27 00:36:00,59.9,57.3,30.06,NNW,340,0.0,0.0,91,0.00,,CLR,0.00,VWS V14.01,2013-06-27 07:36:00,
2013-06-27 00:41:00,59.8,57.2,30.06,NNW,340,0.0,0.0,91,0.00,,FEW037,0.00,VWS V14.01,2013-06-27 07:41:00,
2013-06-27 00:46:00,59.5,57.2,30.06,NNW,340,0.0,0.0,92,0.00,,FEW037,0.00,VWS V14.01,2013-06-27 07:46:00,
2013-06-27 00:51:00,59.3,56.7,30.06,NNW,340,0.0,0.0,91,0.00,,FEW037,0.00,VWS V14.01,2013-06-27 07:51:00,
2013-06-27 00:56:00,59.2,56.9,30.06,NNW,340,0.0,0.0,92,0.00,,FEW037,0.00,VWS V14.01,2013-06-27 07:56:00,
2013-06-27 01:01:00,59.0,56.7,30.06,NNW,340,0.0,0.0,92,0.00,,CLR,0.00,VWS V14.01,2013-06-27 08:01:00,
2013-06-27 01:06:00,58.7,56.4,30.06,NNW,340,0.0,0.0,92,0.00,,CLR,0.00,VWS V14.01,2013-06-27 08:06:00,
2013-06-27 01:12:00,58.6,56.3,30.06,NNW,340,0.0,0.0,92,0.00,,CLR,0.00,VWS V14.01,2013-06-27 08:12:00,
2013-06-27 01:17:00,58.4,56.1,30.06,NNW,340,0.0,0.0,92,0.00,,CLR,0.00,VWS V14.01,2013-06-27 08:17:00,
2013-06-27 01:22:00,58.3,56.0,30.06,NNW,340,0.0,0.0,92,0.00,,CLR,0.00,VWS V14.01,2013-06-27 08:22:00,
2013-06-27 01:27:00,58.1,55.8,30.06,NNW,340,0.0,0.0,92,0.00,,CLR,0.00,VWS V14.01,2013-06-27 08:27:00,
2013-06-27 01:32:00,58.1,55.8,30.06,NNW,340,0.0,0.0,92,0.00,,CLR,0.00,VWS V14.01,2013-06-27 08:32:00,
2013-06-27 01:37:00,58.0,55.7,30.06,NNW,340,0.0,0.0,92,0.00,,CLR,0.00,VWS V14.01,2013-06-27 08:37:00,
2013-06-27 01:42:00,57.8,55.5,30.05,NNW,340,0.0,0.0,92,0.00,,CLR,0.00,VWS V14.01,2013-06-27 08:42:00,
2013-06-27 01:47:00,57.8,55.8,30.06,NNW,340,0.0,0.0,93,0.00,,CLR,0.00,VWS V14.01,2013-06-27 08:47:00,
2013-06-27 01:52:00,58.0,56.0,30.06,NNW,340,0.0,0.0,93,0.00,,CLR,0.00,VWS V14.01,2013-06-27 08:52:00,
2013-06-27 01:57:00,58.1,56.1,30.06,NNW,340,0.0,0.0,93,0.00,,CLR,0.00,VWS V14.01,2013-06-27 08:57:00,
2013-06-27 02:02:00,58.0,56.0,30.06,NNW,340,0.0,0.0,93,0.00,,CLR,0.00,VWS V14.01,2013-06-27 09:02:00,
2013-06-27 02:07:00,57.8,55.8,30.06,NNW,340,0.0,0.0,93,0.00,,CLR,0.00,VWS V14.01,2013-06-27 09:07:00,
2013-06-27 02:12:00,57.6,55.6,30.06,NNW,340,0.0,0.0,93,0.00,,CLR,0.00,VWS V14.01,2013-06-27 09:12:00,
2013-06-27 02:17:00,57.3,55.3,30.06,NNW,340,0.0,0.0,93,0.00,,CLR,0.00,VWS V14.01,2013-06-27 09:17:00,
2013-06-27 02:22:00,57.2,55.2,30.06,NNW,340,0.0,0.0,93,0.00,,CLR,0.00,VWS V14.01,2013-06-27 09:22:00,
2013-06-27 02:27:00,57.2,55.2,30.06,NNW,340,0.0,0.0,93,0.00,,CLR,0.00,VWS V14.01,2013-06-27 09:27:00,
2013-06-27 02:32:00,57.0,55.0,30.06,NNW,340,0.0,0.0,93,0.00,,CLR,0.00,VWS V14.01,2013-06-27 09:32:00,
2013-06-27 02:37:00,57.0,55.0,30.06,NNE,13,0.0,0.0,93,0.00,,CLR,0.00,VWS V14.01,2013-06-27 09:37:00,
2013-06-27 02:42:00,57.0,55.3,30.06,NNE,13,0.0,0.0,94,0.00,,CLR,0.00,VWS V14.01,2013-06-27 09:42:00,
2013-06-27 02:47:00,57.2,55.5,30.06,NNE,13,0.0,0.0,94,0.00,,CLR,0.00,VWS V14.01,2013-06-27 09:47:00,
2013-06-27 02:52:00,57.3,55.6,30.07,NNE,13,0.0,0.0,94,0.00,,CLR,0.00,VWS V14.01,2013-06-27 09:52:00,
2013-06-27 02:57:00,57.5,55.8,30.07,NNE,13,0.0,0.0,94,0.00,,CLR,0.00,VWS V14.01,2013-06-27 09:57:00,
2013-06-27 03:02:00,57.6,55.9,30.07,NNE,13,0.0,0.0,94,0.00,,CLR,0.00,VWS V14.01,2013-06-27 10:02:00,
2013-06-27 03:07:00,57.5,55.8,30.07,NNE,13,0.0,0.0,94,0.00,,CLR,0.00,VWS V14.01,2013-06-27 10:07:00,
2013-06-27 03:12:00,57.5,56.1,30.07,NNE,13,0.0,0.0,95,0.00,,CLR,0.00,VWS V14.01,2013-06-27 10:12:00,
2013-06-27 03:17:00,58.0,56.6,30.06,ESE,116,0.0,0.0,95,0.00,,CLR,0.00,VWS V14.01,2013-06-27 10:17:00,
2013-06-27 03:22:00,58.9,57.8,30.06,SE,124,0.0,0.0,96,0.00,,CLR,0.00,VWS V14.01,2013-06-27 10:22:00,
2013-06-27 03:27:00,59.5,58.4,30.06,ESE,122,0.0,0.0,96,0.00,,CLR,0.00,VWS V14.01,2013-06-27 10:27:00,
2013-06-27 03:32:00,60.2,59.1,30.06,SE,139,0.0,0.0,96,0.00,,CLR,0.00,VWS V14.01,2013-06-27 10:32:00,
2013-06-27 03:37:00,60.9,59.8,30.06,SE,124,0.0,0.0,96,0.00,,CLR,0.00,VWS V14.01,2013-06-27 10:37:00,
2013-06-27 03:42:00,61.0,59.9,30.06,SE,134,0.0,0.0,96,0.00,,CLR,0.00,VWS V14.01,2013-06-27 10:42:00,
2013-06-27 03:47:00,61.3,59.9,30.06,SE,132,0.0,0.0,95,0.00,,CLR,0.00,VWS V14.01,2013-06-27 10:47:00,
2013-06-27 03:52:00,61.3,59.9,30.06,SE,130,0.0,0.0,95,0.00,,CLR,0.00,VWS V14.01,2013-06-27 10:52:00,
2013-06-27 03:57:00,60.7,58.7,30.06,ESE,110,0.0,0.0,93,0.00,,CLR,0.00,VWS V14.01,2013-06-27 10:57:00,
2013-06-27 04:02:00,59.8,57.8,30.06,SE,132,0.0,0.0,93,0.00,,CLR,0.00,VWS V14.01,2013-06-27 11:02:00,
2013-06-27 04:07:00,59.5,57.8,30.06,SE,132,0.0,0.0,94,0.00,,CLR,0.00,VWS V14.01,2013-06-27 11:07:00,
2013-06-27 04:12:00,59.5,57.8,30.06,ESE,121,0.0,0.0,94,0.00,,CLR,0.00,VWS V14.01,2013-06-27 11:12:00,
2013-06-27 04:17:00,60.2,58.8,30.06,SE,140,7.0,10.0,95,0.00,,CLR,0.00,VWS V14.01,2013-06-27 11:17:00,
2013-06-27 04:22:00,60.9,59.5,30.05,SE,140,6.0,9.0,95,0.00,,CLR,0.00,VWS V14.01,2013-06-27 11:22:00,
2013-06-27 04:27:00,61.3,59.9,30.05,ESE,107,5.0,9.0,95,0.00,,CLR,0.00,VWS V14.01,2013-06-27 11:27:00,
2013-06-27 04:32:00,61.5,59.8,30.05,ESE,111,7.0,10.0,94,0.00,,CLR,0.00,VWS V14.01,2013-06-27 11:32:00,
2013-06-27 04:37:00,61.5,59.8,30.05,SSE,155,4.0,8.0,94,0.00,,CLR,0.00,VWS V14.01,2013-06-27 11:37:00,
2013-06-27 04:42:00,61.6,59.9,30.05,ESE,113,5.0,8.0,94,0.00,,CLR,0.00,VWS V14.01,2013-06-27 11:42:00,
2013-06-27 04:47:00,61.8,59.8,30.05,SSE,149,4.0,6.0,93,0.00,,CLR,0.00,VWS V14.01,2013-06-27 11:47:00,
2013-06-27 04:52:00,61.3,59.0,30.05,NNW,348,2.0,4.0,92,0.00,,CLR,0.00,VWS V14.01,2013-06-27 11:52:00,
2013-06-27 04:57:00,60.5,58.2,30.05,North,360,0.0,0.0,92,0.00,,CLR,0.00,VWS V14.01,2013-06-27 11:57:00,
2013-06-27 05:02:00,59.8,57.5,30.05,North,360,0.0,0.0,92,0.00,,CLR,0.00,VWS V14.01,2013-06-27 12:02:00,
2013-06-27 05:07:00,59.3,57.0,30.06,North,360,0.0,0.0,92,0.00,,CLR,0.00,VWS V14.01,2013-06-27 12:07:00,
2013-06-27 05:12:00,59.0,56.7,30.06,North,360,0.0,0.0,92,0.00,,CLR,0.00,VWS V14.01,2013-06-27 12:12:00,
2013-06-27 05:17:00,58.6,56.3,30.05,North,360,0.0,0.0,92,0.00,,CLR,0.00,VWS V14.01,2013-06-27 12:17:00,
2013-06-27 05:22:00,58.1,55.8,30.05,North,360,0.0,0.0,92,0.00,,CLR,0.00,VWS V14.01,2013-06-27 12:22:00,
2013-06-27 05:27:00,58.1,55.8,30.05,SE,140,8.0,8.0,92,0.00,,CLR,0.00,VWS V14.01,2013-06-27 12:27:00,
2013-06-27 05:32:00,59.0,57.3,30.05,SSE,154,6.0,8.0,94,0.00,,CLR,0.00,VWS V14.01,2013-06-27 12:32:00,
2013-06-27 05:37:00,59.8,58.1,30.06,NNW,339,2.0,4.0,94,0.00,,CLR,0.00,VWS V14.01,2013-06-27 12:37:00,
2013-06-27 05:42:00,59.5,57.5,30.06,NW,317,0.0,2.0,93,0.00,,CLR,0.00,VWS V14.01,2013-06-27 12:42:00,
2013-06-27 05:47:00,59.0,57.0,30.06,NW,317,0.0,0.0,93,0.00,,CLR,0.00,VWS V14.01,2013-06-27 12:47:00,
2013-06-27 05:52:00,58.7,56.7,30.07,NW,317,0.0,0.0,93,0.00,,CLR,0.00,VWS V14.01,2013-06-27 12:52:00,
2013-06-27 05:57:00,58.6,56.6,30.07,NW,317,0.0,0.0,93,0.00,,CLR,0.00,VWS V14.01,2013-06-27 12:57:00,
2013-06-27 06:02:00,58.3,56.3,30.07,NW,317,0.0,0.0,93,0.00,,CLR,0.00,VWS V14.01,2013-06-27 13:02:00,
2013-06-27 06:07:00,58.0,56.0,30.07,NW,317,0.0,0.0,93,0.00,,CLR,0.00,VWS V14.01,2013-06-27 13:07:00,
2013-06-27 06:12:00,58.0,56.0,30.08,NW,317,0.0,0.0,93,0.00,,CLR,0.00,VWS V14.01,2013-06-27 13:12:00,
2013-06-27 06:17:00,57.8,56.1,30.08,NW,317,0.0,0.0,94,0.00,,CLR,0.00,VWS V14.01,2013-06-27 13:17:00,
2013-06-27 06:22:00,57.8,56.1,30.08,NW,317,0.0,0.0,94,0.00,,CLR,0.00,VWS V14.01,2013-06-27 13:22:00,
2013-06-27 06:27:00,57.6,55.9,30.08,NW,317,2.0,2.0,94,0.00,,CLR,0.00,VWS V14.01,2013-06-27 13:27:00,
2013-06-27 06:32:00,57.3,55.3,30.09,NW,317,1.0,2.0,93,0.00,,CLR,0.00,VWS V14.01,2013-06-27 13:32:00,
2013-06-27 06:37:00,57.2,55.5,30.09,NW,317,0.0,0.0,94,0.00,,CLR,0.00,VWS V14.01,2013-06-27 13:37:00,
2013-06-27 06:42:00,57.0,55.3,30.09,NW,317,0.0,0.0,94,0.00,,CLR,0.00,VWS V14.01,2013-06-27 13:42:00,
2013-06-27 06:47:00,57.0,55.3,30.09,NW,317,0.0,0.0,94,0.00,,CLR,0.00,VWS V14.01,2013-06-27 13:47:00,
2013-06-27 06:52:00,57.0,55.3,30.09,NW,317,0.0,0.0,94,0.00,,CLR,0.00,VWS V14.01,2013-06-27 13:52:00,
2013-06-27 06:57:00,57.0,55.3,30.10,NW,317,0.0,0.0,94,0.00,,CLR,0.00,VWS V14.01,2013-06-27 13:57:00,
2013-06-27 07:02:00,57.0,55.3,30.10,NW,317,0.0,0.0,94,0.00,,OVC001,0.00,VWS V14.01,2013-06-27 14:02:00,
2013-06-27 07:07:00,56.9,55.2,30.10,NW,317,0.0,0.0,94,0.00,,OVC001,0.00,VWS V14.01,2013-06-27 14:07:00,
2013-06-27 07:12:00,56.9,55.2,30.10,NW,317,0.0,0.0,94,0.00,,OVC001,0.00,VWS V14.01,2013-06-27 14:12:00,
2013-06-27 07:17:00,56.9,55.2,30.10,NW,317,0.0,0.0,94,0.00,,OVC001,0.00,VWS V14.01,2013-06-27 14:17:00,
2013-06-27 07:22:00,57.0,55.6,30.10,NW,317,0.0,0.0,95,0.00,,OVC001,0.00,VWS V14.01,2013-06-27 14:22:00,
2013-06-27 07:27:00,57.3,55.9,30.10,NW,317,0.0,0.0,95,0.00,,OVC001,0.00,VWS V14.01,2013-06-27 14:27:00,
2013-06-27 07:32:00,57.5,56.1,30.11,NW,317,0.0,0.0,95,0.00,,OVC001,0.00,VWS V14.01,2013-06-27 14:32:00,
2013-06-27 07:37:00,57.6,56.2,30.11,NW,317,0.0,0.0,95,0.00,,OVC001,0.00,VWS V14.01,2013-06-27 14:37:00,
2013-06-27 07:42:00,57.8,56.4,30.11,NW,317,0.0,0.0,95,0.00,,OVC002,0.00,VWS V14.01,2013-06-27 14:42:00,
2013-06-27 07:47:00,58.1,56.7,30.11,NW,317,0.0,0.0,95,0.00,,OVC002,0.00,VWS V14.01,2013-06-27 14:47:00,
2013-06-27 07:52:00,58.9,57.8,30.11,NW,317,1.0,2.0,96,0.00,,OVC002,0.00,VWS V14.01,2013-06-27 14:52:00,
2013-06-27 07:57:00,59.3,58.2,30.11,NW,317,2.0,3.0,96,0.00,,OVC002,0.00,VWS V14.01,2013-06-27 14:57:00,
2013-06-27 08:02:00,60.1,59.0,30.11,NW,317,2.0,3.0,96,0.00,,OVC002,0.00,VWS V14.01,2013-06-27 15:02:00,
2013-06-27 08:07:00,61.0,59.9,30.11,NW,317,0.0,2.0,96,0.00,,OVC002,0.00,VWS V14.01,2013-06-27 15:07:00,
2013-06-27 08:12:00,61.8,60.7,30.11,NW,317,0.0,1.0,96,0.00,,OVC002,0.00,VWS V14.01,2013-06-27 15:12:00,
2013-06-27 08:17:00,62.3,60.8,30.11,NW,317,0.0,0.0,95,0.00,,OVC002,0.00,VWS V14.01,2013-06-27 15:17:00,
2013-06-27 08:22:00,63.1,61.3,30.11,NW,317,1.0,2.0,94,0.00,,OVC002,0.00,VWS V14.01,2013-06-27 15:22:00,
2013-06-27 08:27:00,63.5,61.1,30.11,NW,317,0.0,0.0,92,0.00,,OVC002,0.00,VWS V14.01,2013-06-27 15:27:00,
2013-06-27 08:32:00,64.2,61.5,30.11,NW,317,0.0,1.0,91,0.00,,OVC002,0.00,VWS V14.01,2013-06-27 15:32:00,
2013-06-27 08:37:00,65.0,61.7,30.11,NW,317,0.0,0.0,89,0.00,,OVC002,0.00,VWS V14.01,2013-06-27 15:37:00,
2013-06-27 08:42:00,65.6,62.0,30.11,NW,317,0.0,0.0,88,0.00,,OVC002,0.00,VWS V14.01,2013-06-27 15:42:00,
2013-06-27 08:47:00,66.3,62.0,30.11,NW,317,0.0,1.0,86,0.00,,OVC002,0.00,VWS V14.01,2013-06-27 15:47:00,
2013-06-27 08:52:00,67.1,62.1,30.11,NW,317,0.0,1.0,84,0.00,,OVC002,0.00,VWS V14.01,2013-06-27 15:52:00,
2013-06-27 08:57:00,67.9,62.5,30.11,NW,317,0.0,1.0,83,0.00,,OVC002,0.00,VWS V14.01,2013-06-27 15:57:00,
2013-06-27 09:02:00,68.4,62.7,30.11,NW,317,0.0,0.0,82,0.00,,OVC002,0.00,VWS V14.01,2013-06-27 16:02:00,
2013-06-27 09:07:00,68.6,62.2,30.11,WNW,298,0.0,3.0,80,0.00,,OVC002,0.00,VWS V14.01,2013-06-27 16:07:00,
2013-06-27 09:12:00,68.9,62.5,30.12,NW,304,1.0,3.0,80,0.00,,OVC002,0.00,VWS V14.01,2013-06-27 16:12:00,
2013-06-27 09:17:00,68.9,62.5,30.12,WNW,294,0.0,4.0,80,0.00,,OVC002,0.00,VWS V14.01,2013-06-27 16:17:00,
2013-06-27 09:22:00,69.1,62.3,30.12,WNW,294,0.0,0.0,79,0.00,,OVC002,0.00,VWS V14.01,2013-06-27 16:22:00,
2013-06-27 09:27:00,69.1,62.3,30.12,WNW,294,0.0,1.0,79,0.00,,OVC002,0.00,VWS V14.01,2013-06-27 16:27:00,
2013-06-27 09:32:00,69.6,62.8,30.12,WNW,294,0.0,1.0,79,0.00,,OVC002,0.00,VWS V14.01,2013-06-27 16:32:00,
2013-06-27 09:37:00,70.1,63.3,30.12,WNW,293,0.0,1.0,79,0.00,,OVC002,0.00,VWS V14.01,2013-06-27 16:37:00,
2013-06-27 09:42:00,70.3,62.8,30.12,WNW,298,0.0,2.0,77,0.00,,CLR,0.00,VWS V14.01,2013-06-27 16:42:00,
2013-06-27 09:47:00,70.6,63.4,30.12,WNW,298,0.0,1.0,78,0.00,,CLR,0.00,VWS V14.01,2013-06-27 16:47:00,
2013-06-27 09:52:00,70.8,63.2,30.12,WNW,300,0.0,3.0,77,0.00,,CLR,0.00,VWS V14.01,2013-06-27 16:52:00,
2013-06-27 09:57:00,70.6,62.7,30.12,North,5,0.0,4.0,76,0.00,,CLR,0.00,VWS V14.01,2013-06-27 16:57:00,
2013-06-27 10:02:00,70.9,63.3,30.12,North,5,0.0,3.0,77,0.00,,CLR,0.00,VWS V14.01,2013-06-27 17:02:00,
2013-06-27 10:07:00,71.1,63.2,30.12,NNW,334,1.0,1.0,76,0.00,,CLR,0.00,VWS V14.01,2013-06-27 17:07:00,
2013-06-27 10:12:00,71.3,63.3,30.12,NNW,334,0.0,1.0,76,0.00,,CLR,0.00,VWS V14.01,2013-06-27 17:12:00,
2013-06-27 10:17:00,71.8,63.5,30.12,NNW,334,0.0,0.0,75,0.00,,CLR,0.00,VWS V14.01,2013-06-27 17:17:00,
2013-06-27 10:22:00,72.5,64.1,30.12,NNW,334,0.0,3.0,75,0.00,,CLR,0.00,VWS V14.01,2013-06-27 17:22:00,
2013-06-27 10:27:00,73.0,63.8,30.12,NW,326,0.0,2.0,73,0.00,,CLR,0.00,VWS V14.01,2013-06-27 17:27:00,
2013-06-27 10:32:00,73.3,64.1,30.12,NW,325,0.0,0.0,73,0.00,,CLR,0.00,VWS V14.01,2013-06-27 17:32:00,
2013-06-27 10:37:00,73.7,64.9,30.12,NW,324,0.0,2.0,74,0.00,,CLR,0.00,VWS V14.01,2013-06-27 17:37:00,
2013-06-27 10:42:00,74.4,64.8,30.12,WNW,292,1.0,3.0,72,0.00,,CLR,0.00,VWS V14.01,2013-06-27 17:42:00,
2013-06-27 10:47:00,74.6,64.6,30.12,NW,304,0.0,4.0,71,0.00,,CLR,0.00,VWS V14.01,2013-06-27 17:47:00,
2013-06-27 10:52:00,75.1,65.1,30.12,WNW,285,0.0,2.0,71,0.00,,CLR,0.00,VWS V14.01,2013-06-27 17:52:00,
2013-06-27 10:57:00,75.3,65.3,30.12,West,270,0.0,3.0,71,0.00,,CLR,0.00,VWS V14.01,2013-06-27 17:57:00,
2013-06-27 11:02:00,75.6,65.5,30.12,NNW,330,1.0,3.0,71,0.00,,CLR,0.00,VWS V14.01,2013-06-27 18:02:00,
2013-06-27 11:07:00,75.6,64.7,30.12,NNW,331,0.0,4.0,69,0.00,,CLR,0.00,VWS V14.01,2013-06-27 18:07:00,
2013-06-27 11:12:00,75.4,64.1,30.12,NNW,333,3.0,5.0,68,0.00,,CLR,0.00,VWS V14.01,2013-06-27 18:12:00,
2013-06-27 11:17:00,75.4,65.3,30.12,West,277,4.0,7.0,71,0.00,,CLR,0.00,VWS V14.01,2013-06-27 18:17:00,
2013-06-27 11:22:00,75.3,64.8,30.13,NNW,342,0.0,5.0,70,0.00,,CLR,0.00,VWS V14.01,2013-06-27 18:22:00,
2013-06-27 11:27:00,74.9,64.5,30.13,WNW,294,0.0,6.0,70,0.00,,CLR,0.00,VWS V14.01,2013-06-27 18:27:00,
2013-06-27 11:32:00,74.9,63.6,30.13,WNW,289,0.0,5.0,68,0.00,,CLR,0.00,VWS V14.01,2013-06-27 18:32:00,
2013-06-27 11:37:00,74.7,63.0,30.13,NW,320,8.0,8.0,67,0.00,,CLR,0.00,VWS V14.01,2013-06-27 18:37:00,
2013-06-27 11:42:00,74.6,63.3,30.13,WSW,249,1.0,6.0,68,0.00,,CLR,0.00,VWS V14.01,2013-06-27 18:42:00,
2013-06-27 11:47:00,74.4,63.2,30.13,NNW,347,2.0,7.0,68,0.00,,CLR,0.00,VWS V14.01,2013-06-27 18:47:00,
2013-06-27 11:52:00,74.4,63.6,30.13,WNW,297,4.0,6.0,69,0.00,,CLR,0.00,VWS V14.01,2013-06-27 18:52:00,
2013-06-27 11:57:00,74.2,63.0,30.13,West,275,0.0,6.0,68,0.00,,CLR,0.00,VWS V14.01,2013-06-27 18:57:00,
2013-06-27 12:02:00,74.2,63.4,30.13,West,281,1.0,3.0,69,0.00,,CLR,0.00,VWS V14.01,2013-06-27 19:02:00,
2013-06-27 12:07:00,74.0,63.2,30.13,NNW,335,0.0,7.0,69,0.00,,CLR,0.00,VWS V14.01,2013-06-27 19:07:00,
2013-06-27 12:12:00,73.9,62.7,30.13,WNW,298,5.0,7.0,68,0.00,,CLR,0.00,VWS V14.01,2013-06-27 19:12:00,
2013-06-27 12:17:00,73.9,63.1,30.13,West,262,4.0,11.0,69,0.00,,CLR,0.00,VWS V14.01,2013-06-27 19:17:00,
2013-06-27 12:22:00,74.0,63.2,30.14,NNW,342,1.0,9.0,69,0.00,,CLR,0.00,VWS V14.01,2013-06-27 19:22:00,
2013-06-27 12:27:00,73.9,63.5,30.13,NW,319,0.0,7.0,70,0.00,,CLR,0.00,VWS V14.01,2013-06-27 19:27:00,
2013-06-27 12:32:00,73.9,63.1,30.14,NW,310,3.0,4.0,69,0.00,,CLR,0.00,VWS V14.01,2013-06-27 19:32:00,
2013-06-27 12:37:00,73.7,62.5,30.14,NW,306,0.0,8.0,68,0.00,,CLR,0.00,VWS V14.01,2013-06-27 19:37:00,
2013-06-27 12:42:00,73.5,62.7,30.14,West,259,4.0,6.0,69,0.00,,CLR,0.00,VWS V14.01,2013-06-27 19:42:00,
2013-06-27 12:47:00,73.5,62.7,30.14,NW,326,0.0,4.0,69,0.00,,CLR,0.00,VWS V14.01,2013-06-27 19:47:00,
2013-06-27 12:52:00,73.5,62.7,30.14,NNW,329,0.0,5.0,69,0.00,,CLR,0.00,VWS V14.01,2013-06-27 19:52:00,
2013-06-27 12:57:00,73.5,62.3,30.14,NNW,335,1.0,6.0,68,0.00,,CLR,0.00,VWS V14.01,2013-06-27 19:57:00,
2013-06-27 13:02:00,73.9,62.7,30.14,West,262,0.0,4.0,68,0.00,,CLR,0.00,VWS V14.01,2013-06-27 20:02:00,
2013-06-27 13:07:00,74.0,62.4,30.14,NNW,333,8.0,11.0,67,0.00,,CLR,0.00,VWS V14.01,2013-06-27 20:07:00,
2013-06-27 13:12:00,74.0,62.4,30.14,WNW,302,3.0,7.0,67,0.00,,CLR,0.00,VWS V14.01,2013-06-27 20:12:00,
2013-06-27 13:17:00,73.7,62.5,30.14,NW,308,0.0,5.0,68,0.00,,CLR,0.00,VWS V14.01,2013-06-27 20:17:00,
2013-06-27 13:22:00,73.5,63.1,30.14,NNE,25,1.0,6.0,70,0.00,,CLR,0.00,VWS V14.01,2013-06-27 20:22:00,
2013-06-27 13:27:00,73.9,63.9,30.14,NNW,327,0.0,7.0,71,0.00,,CLR,0.00,VWS V14.01,2013-06-27 20:27:00,
2013-06-27 13:32:00,74.4,64.4,30.14,WNW,299,4.0,7.0,71,0.00,,CLR,0.00,VWS V14.01,2013-06-27 20:32:00,
2013-06-27 13:37:00,74.6,64.6,30.14,NW,310,0.0,7.0,71,0.00,,CLR,0.00,VWS V14.01,2013-06-27 20:37:00,
2013-06-27 13:42:00,74.4,64.4,30.14,NW,310,0.0,9.0,71,0.00,,CLR,0.00,VWS V14.01,2013-06-27 20:42:00,
2013-06-27 13:47:00,74.2,64.2,30.14,WNW,290,1.0,13.0,71,0.00,,CLR,0.00,VWS V14.01,2013-06-27 20:47:00,
2013-06-27 13:52:00,74.4,64.4,30.14,NNW,345,4.0,5.0,71,0.00,,CLR,0.00,VWS V14.01,2013-06-27 20:52:00,
2013-06-27 13:57:00,74.2,64.2,30.14,North,351,2.0,10.0,71,0.00,,CLR,0.00,VWS V14.01,2013-06-27 20:57:00,
2013-06-27 14:02:00,74.4,64.4,30.14,NNW,343,7.0,9.0,71,0.00,,CLR,0.00,VWS V14.01,2013-06-27 21:02:00,
2013-06-27 14:07:00,74.2,64.2,30.14,WSW,240,0.0,7.0,71,0.00,,CLR,0.00,VWS V14.01,2013-06-27 21:07:00,
2013-06-27 14:12:00,73.9,64.3,30.14,NW,309,0.0,1.0,72,0.00,,CLR,0.00,VWS V14.01,2013-06-27 21:12:00,
2013-06-27 14:18:00,73.7,64.1,30.14,West,267,0.0,8.0,72,0.00,,CLR,0.00,VWS V14.01,2013-06-27 21:18:00,
2013-06-27 14:23:00,73.7,64.5,30.14,WNW,296,4.0,7.0,73,0.00,,CLR,0.00,VWS V14.01,2013-06-27 21:23:00,
2013-06-27 14:28:00,73.7,64.1,30.14,NW,309,3.0,8.0,72,0.00,,CLR,0.00,VWS V14.01,2013-06-27 21:28:00,
2013-06-27 14:33:00,73.7,64.9,30.14,West,265,2.0,5.0,74,0.00,,CLR,0.00,VWS V14.01,2013-06-27 21:33:00,
2013-06-27 14:38:00,73.7,64.9,30.14,West,267,0.0,7.0,74,0.00,,CLR,0.00,VWS V14.01,2013-06-27 21:38:00,
2013-06-27 14:43:00,73.7,64.1,30.14,NW,304,5.0,6.0,72,0.00,,CLR,0.00,VWS V14.01,2013-06-27 21:43:00,
2013-06-27 14:48:00,73.9,64.7,30.14,West,277,3.0,4.0,73,0.00,,CLR,0.00,VWS V14.01,2013-06-27 21:48:00,
2013-06-27 14:53:00,73.9,64.3,30.14,NNW,337,0.0,8.0,72,0.00,,CLR,0.00,VWS V14.01,2013-06-27 21:53:00,
2013-06-27 14:58:00,74.0,64.4,30.14,NNW,345,4.0,6.0,72,0.00,,CLR,0.00,VWS V14.01,2013-06-27 21:58:00,
2013-06-27 15:04:00,74.2,64.2,30.14,NW,312,1.0,6.0,71,0.00,,CLR,0.00,VWS V14.01,2013-06-27 22:04:00,
2013-06-27 15:09:00,74.2,64.2,30.14,WNW,299,5.0,6.0,71,0.00,,CLR,0.00,VWS V14.01,2013-06-27 22:09:00,
2013-06-27 15:14:00,74.4,64.8,30.14,West,266,10.0,10.0,72,0.00,,CLR,0.00,VWS V14.01,2013-06-27 22:14:00,
2013-06-27 15:19:00,74.2,64.2,30.14,WNW,289,0.0,7.0,71,0.00,,CLR,0.00,VWS V14.01,2013-06-27 22:19:00,
2013-06-27 15:24:00,74.4,64.4,30.14,NW,323,4.0,9.0,71,0.00,,CLR,0.00,VWS V14.01,2013-06-27 22:24:00,
2013-06-27 15:29:00,74.6,64.6,30.15,WNW,297,0.0,5.0,71,0.00,,CLR,0.00,VWS V14.01,2013-06-27 22:29:00,
2013-06-27 15:34:00,74.4,64.4,30.15,WNW,282,5.0,6.0,71,0.00,,CLR,0.00,VWS V14.01,2013-06-27 22:34:00,
2013-06-27 15:39:00,74.6,64.2,30.14,North,5,4.0,9.0,70,0.00,,CLR,0.00,VWS V14.01,2013-06-27 22:39:00,
2013-06-27 15:44:00,74.7,64.7,30.14,WNW,300,12.0,12.0,71,0.00,,CLR,0.00,VWS V14.01,2013-06-27 22:44:00,
2013-06-27 15:49:00,74.7,63.9,30.14,West,280,2.0,6.0,69,0.00,,CLR,0.00,VWS V14.01,2013-06-27 22:49:00,
2013-06-27 15:54:00,74.9,64.1,30.14,WNW,295,0.0,4.0,69,0.00,,CLR,0.00,VWS V14.01,2013-06-27 22:54:00,
2013-06-27 16:00:00,74.9,64.1,30.14,NNW,336,3.0,5.0,69,0.00,,CLR,0.00,VWS V14.01,2013-06-27 23:00:00,
2013-06-27 16:05:00,74.7,63.5,30.14,NW,313,0.0,8.0,68,0.00,,CLR,0.00,VWS V14.01,2013-06-27 23:05:00,
2013-06-27 16:10:00,74.6,63.3,30.14,WNW,303,3.0,8.0,68,0.00,,CLR,0.00,VWS V14.01,2013-06-27 23:10:00,
2013-06-27 16:15:00,73.9,63.1,30.14,NW,315,0.0,7.0,69,0.00,,CLR,0.00,VWS V14.01,2013-06-27 23:15:00,
2013-06-27 16:20:00,73.9,63.5,30.14,North,355,3.0,5.0,70,0.00,,CLR,0.00,VWS V14.01,2013-06-27 23:20:00,
2013-06-27 16:25:00,73.9,63.5,30.14,NE,41,0.0,5.0,70,0.00,,CLR,0.00,VWS V14.01,2013-06-27 23:25:00,
2013-06-27 16:30:00,74.0,63.2,30.14,North,355,5.0,8.0,69,0.00,,CLR,0.00,VWS V14.01,2013-06-27 23:30:00,
2013-06-27 16:35:00,74.2,63.8,30.15,NW,315,5.0,6.0,70,0.00,,CLR,0.00,VWS V14.01,2013-06-27 23:35:00,
2013-06-27 16:40:00,73.9,63.5,30.15,NNW,329,0.0,6.0,70,0.00,,CLR,0.00,VWS V14.01,2013-06-27 23:40:00,
2013-06-27 16:45:00,73.7,63.7,30.14,WNW,284,0.0,4.0,71,0.00,,CLR,0.00,VWS V14.01,2013-06-27 23:45:00,
2013-06-27 16:50:00,73.7,63.7,30.15,NNW,329,0.0,9.0,71,0.00,,CLR,0.00,VWS V14.01,2013-06-27 23:50:00,
2013-06-27 16:55:00,73.5,63.9,30.15,WSW,244,4.0,4.0,72,0.00,,CLR,0.00,VWS V14.01,2013-06-27 23:55:00,
2013-06-27 17:00:00,73.2,64.0,30.15,NNW,331,0.0,3.0,73,0.00,,CLR,0.00,VWS V14.01,2013-06-28 00:00:00,
2013-06-27 17:05:00,73.2,63.6,30.15,NW,325,0.0,5.0,72,0.00,,CLR,0.00,VWS V14.01,2013-06-28 00:05:00,
2013-06-27 17:10:00,73.0,63.5,30.15,NNW,335,5.0,10.0,72,0.00,,CLR,0.00,VWS V14.01,2013-06-28 00:10:00,
2013-06-27 17:15:00,72.7,63.5,30.15,NNW,331,4.0,4.0,73,0.00,,CLR,0.00,VWS V14.01,2013-06-28 00:15:00,
2013-06-27 17:20:00,72.3,63.2,30.14,WNW,302,0.0,7.0,73,0.00,,CLR,0.00,VWS V14.01,2013-06-28 00:20:00,
2013-06-27 17:25:00,72.3,63.2,30.14,NW,306,0.0,10.0,73,0.00,,CLR,0.00,VWS V14.01,2013-06-28 00:25:00,
2013-06-27 17:31:00,72.7,63.9,30.14,WNW,285,5.0,5.0,74,0.00,,CLR,0.00,VWS V14.01,2013-06-28 00:31:00,
2013-06-27 17:36:00,72.7,63.5,30.14,NNW,337,10.0,10.0,73,0.00,,CLR,0.00,VWS V14.01,2013-06-28 00:36:00,
2013-06-27 17:41:00,72.5,63.8,30.14,WNW,296,5.0,8.0,74,0.00,,CLR,0.00,VWS V14.01,2013-06-28 00:41:00,
2013-06-27 17:46:00,72.1,63.4,30.14,NW,311,3.0,7.0,74,0.00,,CLR,0.00,VWS V14.01,2013-06-28 00:46:00,
2013-06-27 17:51:00,72.0,63.7,30.14,West,281,5.0,6.0,75,0.00,,CLR,0.00,VWS V14.01,2013-06-28 00:51:00,
2013-06-27 17:56:00,72.1,63.4,30.14,WNW,300,0.0,6.0,74,0.00,,CLR,0.00,VWS V14.01,2013-06-28 00:56:00,
2013-06-27 18:02:00,71.8,63.5,30.14,WSW,255,0.0,0.0,75,0.00,,CLR,0.00,VWS V14.01,2013-06-28 01:02:00,
2013-06-27 18:07:00,71.8,63.5,30.14,WNW,303,5.0,6.0,75,0.00,,CLR,0.00,VWS V14.01,2013-06-28 01:07:00,
2013-06-27 18:12:00,71.6,63.3,30.14,West,267,2.0,5.0,75,0.00,,CLR,0.00,VWS V14.01,2013-06-28 01:12:00,
2013-06-27 18:17:00,71.8,63.8,30.14,WNW,283,0.0,0.0,76,0.00,,CLR,0.00,VWS V14.01,2013-06-28 01:17:00,
2013-06-27 18:22:00,71.8,63.5,30.14,WSW,246,3.0,8.0,75,0.00,,CLR,0.00,VWS V14.01,2013-06-28 01:22:00,
2013-06-27 18:27:00,71.6,63.6,30.14,WNW,286,0.0,2.0,76,0.00,,CLR,0.00,VWS V14.01,2013-06-28 01:27:00,
2013-06-27 18:32:00,71.5,63.2,30.14,NW,325,1.0,4.0,75,0.00,,CLR,0.00,VWS V14.01,2013-06-28 01:32:00,
2013-06-27 18:37:00,71.3,63.3,30.14,West,273,0.0,5.0,76,0.00,,CLR,0.00,VWS V14.01,2013-06-28 01:37:00,
2013-06-27 18:42:00,70.9,63.0,30.14,NNW,336,0.0,4.0,76,0.00,,CLR,0.00,VWS V14.01,2013-06-28 01:42:00,
2013-06-27 18:47:00,70.8,62.9,30.13,NW,306,0.0,5.0,76,0.00,,CLR,0.00,VWS V14.01,2013-06-28 01:47:00,
2013-06-27 18:53:00,70.6,63.0,30.13,WNW,290,3.0,3.0,77,0.00,,CLR,0.00,VWS V14.01,2013-06-28 01:53:00,
2013-06-27 18:58:00,70.6,63.4,30.13,WSW,244,3.0,3.0,78,0.00,,CLR,0.00,VWS V14.01,2013-06-28 01:58:00,
2013-06-27 19:03:00,70.1,62.9,30.13,NNW,341,0.0,0.0,78,0.00,,CLR,0.00,VWS V14.01,2013-06-28 02:03:00,
2013-06-27 19:08:00,69.8,63.4,30.13,WNW,286,0.0,4.0,80,0.00,,CLR,0.00,VWS V14.01,2013-06-28 02:08:00,
2013-06-27 19:13:00,69.4,63.0,30.13,NW,318,0.0,6.0,80,0.00,,CLR,0.00,VWS V14.01,2013-06-28 02:13:00,
2013-06-27 19:18:00,69.3,62.9,30.13,NW,318,3.0,3.0,80,0.00,,CLR,0.00,VWS V14.01,2013-06-28 02:18:00,
2013-06-27 19:23:00,69.1,62.7,30.13,WNW,291,0.0,7.0,80,0.00,,CLR,0.00,VWS V14.01,2013-06-28 02:23:00,
2013-06-27 19:28:00,68.9,62.5,30.13,WNW,292,0.0,0.0,80,0.00,,CLR,0.00,VWS V14.01,2013-06-28 02:28:00,
2013-06-27 19:33:00,68.9,62.5,30.13,WNW,292,0.0,5.0,80,0.00,,CLR,0.00,VWS V14.01,2013-06-28 02:33:00,
2013-06-27 19:38:00,68.4,62.3,30.13,NNW,341,0.0,2.0,81,0.00,,CLR,0.00,VWS V14.01,2013-06-28 02:38:00,
2013-06-27 19:43:00,68.1,62.1,30.13,SW,223,0.0,0.0,81,0.00,,CLR,0.00,VWS V14.01,2013-06-28 02:43:00,
2013-06-27 19:48:00,67.4,61.7,30.13,West,261,0.0,4.0,82,0.00,,CLR,0.00,VWS V14.01,2013-06-28 02:48:00,
2013-06-27 19:53:00,66.9,61.6,30.13,West,265,0.0,1.0,83,0.00,,CLR,0.00,VWS V14.01,2013-06-28 02:53:00,
2013-06-27 19:58:00,66.6,61.6,30.13,West,269,0.0,5.0,84,0.00,,CLR,0.00,VWS V14.01,2013-06-28 02:58:00,
2013-06-27 20:03:00,66.1,61.1,30.13,West,275,0.0,5.0,84,0.00,,FEW003,0.00,VWS V14.01,2013-06-28 03:03:00,
2013-06-27 20:09:00,65.6,61.0,30.13,WNW,288,0.0,1.0,85,0.00,,FEW003,0.00,VWS V14.01,2013-06-28 03:09:00,
2013-06-27 20:14:00,65.3,61.0,30.13,WNW,288,0.0,0.0,86,0.00,,FEW003,0.00,VWS V14.01,2013-06-28 03:14:00,
2013-06-27 20:19:00,65.0,60.7,30.13,WNW,288,0.0,0.0,86,0.00,,FEW003,0.00,VWS V14.01,2013-06-28 03:19:00,
2013-06-27 20:24:00,64.5,60.5,30.13,WSW,238,0.0,0.0,87,0.00,,FEW003,0.00,VWS V14.01,2013-06-28 03:24:00,
2013-06-27 20:29:00,64.3,60.3,30.13,WSW,239,0.0,1.0,87,0.00,,FEW003,0.00,VWS V14.01,2013-06-28 03:29:00,
2013-06-27 20:34:00,64.0,60.1,30.13,WSW,239,0.0,0.0,87,0.00,,FEW003,0.00,VWS V14.01,2013-06-28 03:34:00,
2013-06-27 20:39:00,63.9,60.3,30.13,WSW,239,0.0,1.0,88,0.00,,FEW003,0.00,VWS V14.01,2013-06-28 03:39:00,
2013-06-27 20:44:00,63.7,60.1,30.13,WSW,239,2.0,3.0,88,0.00,,OVC002,0.00,VWS V14.01,2013-06-28 03:44:00,
2013-06-27 20:49:00,63.2,59.6,30.13,WSW,239,0.0,2.0,88,0.00,,OVC002,0.00,VWS V14.01,2013-06-28 03:49:00,
2013-06-27 20:55:00,62.9,59.3,30.13,WSW,239,2.0,3.0,88,0.00,,OVC002,0.00,VWS V14.01,2013-06-28 03:55:00,
2013-06-27 21:00:00,62.7,59.1,30.13,WSW,239,1.0,3.0,88,0.00,,OVC002,0.00,VWS V14.01,2013-06-28 04:00:00,
2013-06-27 21:01:00,62.6,59.0,30.13,WSW,239,0.0,2.0,88,0.00,,OVC002,0.00,VWS V14.01,2013-06-28 04:01:00,
2013-06-27 21:06:00,62.3,59.0,30.13,WSW,239,0.0,0.0,89,0.00,,OVC002,0.00,VWS V14.01,2013-06-28 04:06:00,
2013-06-27 21:11:00,62.1,58.8,30.13,WSW,239,0.0,0.0,89,0.00,,OVC002,0.00,VWS V14.01,2013-06-28 04:11:00,
2013-06-27 21:16:00,62.0,58.7,30.13,WSW,239,0.0,0.0,89,0.00,,OVC002,0.00,VWS V14.01,2013-06-28 04:16:00,
2013-06-27 21:21:00,61.8,58.5,30.13,WSW,239,0.0,0.0,89,0.00,,OVC002,0.00,VWS V14.01,2013-06-28 04:21:00,
2013-06-27 21:26:00,61.6,58.3,30.13,WSW,239,0.0,1.0,89,0.00,,OVC002,0.00,VWS V14.01,2013-06-28 04:26:00,
2013-06-27 21:31:00,61.6,58.6,30.14,WSW,239,0.0,0.0,90,0.00,,OVC002,0.00,VWS V14.01,2013-06-28 04:31:00,
2013-06-27 21:36:00,61.5,58.5,30.14,WSW,239,0.0,0.0,90,0.00,,OVC002,0.00,VWS V14.01,2013-06-28 04:36:00,
2013-06-27 21:41:00,61.5,58.5,30.14,WSW,239,0.0,0.0,90,0.00,,OVC002,0.00,VWS V14.01,2013-06-28 04:41:00,
2013-06-27 21:46:00,61.3,58.3,30.14,WSW,239,0.0,0.0,90,0.00,,OVC002,0.00,VWS V14.01,2013-06-28 04:46:00,
2013-06-27 21:51:00,61.0,58.0,30.14,WSW,239,0.0,0.0,90,0.00,,OVC002,0.00,VWS V14.01,2013-06-28 04:51:00,
2013-06-27 21:56:00,60.9,58.0,30.14,WSW,239,0.0,0.0,90,0.00,,OVC002,0.00,VWS V14.01,2013-06-28 04:56:00,
2013-06-27 22:01:00,60.5,57.6,30.14,WSW,239,0.0,0.0,90,0.00,,FEW002,0.00,VWS V14.01,2013-06-28 05:01:00,
2013-06-27 22:06:00,60.4,57.5,30.14,WSW,239,0.0,0.0,90,0.00,,FEW002,0.00,VWS V14.01,2013-06-28 05:06:00,
2013-06-27 22:11:00,60.2,57.3,30.14,WSW,239,0.0,0.0,90,0.00,,FEW002,0.00,VWS V14.01,2013-06-28 05:11:00,
2013-06-27 22:16:00,60.1,57.2,30.14,WSW,239,0.0,0.0,90,0.00,,FEW002,0.00,VWS V14.01,2013-06-28 05:16:00,
2013-06-27 22:21:00,59.9,57.0,30.14,WSW,239,0.0,0.0,90,0.00,,FEW002,0.00,VWS V14.01,2013-06-28 05:21:00,
2013-06-27 22:26:00,59.6,56.7,30.14,WSW,239,0.0,0.0,90,0.00,,FEW002,0.00,VWS V14.01,2013-06-28 05:26:00,
2013-06-27 22:31:00,59.5,56.6,30.14,WSW,239,0.0,0.0,90,0.00,,FEW002,0.00,VWS V14.01,2013-06-28 05:31:00,
2013-06-27 22:36:00,59.3,56.4,30.14,WSW,239,0.0,0.0,90,0.00,,FEW002,0.00,VWS V14.01,2013-06-28 05:36:00,
2013-06-27 22:41:00,59.2,56.6,30.14,WSW,239,0.0,0.0,91,0.00,,CLR,0.00,VWS V14.01,2013-06-28 05:41:00,
2013-06-27 22:46:00,59.3,56.7,30.14,WSW,239,0.0,0.0,91,0.00,,CLR,0.00,VWS V14.01,2013-06-28 05:46:00,
2013-06-27 22:51:00,59.3,56.7,30.14,WSW,239,0.0,0.0,91,0.00,,CLR,0.00,VWS V14.01,2013-06-28 05:51:00,
2013-06-27 22:56:00,59.3,56.7,30.14,WSW,239,0.0,0.0,91,0.00,,CLR,0.00,VWS V14.01,2013-06-28 05:56:00,
2013-06-27 23:01:00,59.2,56.6,30.14,WSW,239,0.0,0.0,91,0.00,,CLR,0.00,VWS V14.01,2013-06-28 06:01:00,
2013-06-27 23:06:00,58.9,56.3,30.14,WSW,239,0.0,0.0,91,0.00,,CLR,0.00,VWS V14.01,2013-06-28 06:06:00,
2013-06-27 23:11:00,58.7,56.1,30.14,WSW,239,0.0,0.0,91,0.00,,CLR,0.00,VWS V14.01,2013-06-28 06:11:00,
2013-06-27 23:16:00,58.6,56.0,30.14,WSW,239,0.0,0.0,91,0.00,,CLR,0.00,VWS V14.01,2013-06-28 06:16:00,
2013-06-27 23:21:00,58.6,56.0,30.14,WSW,239,0.0,0.0,91,0.00,,CLR,0.00,VWS V14.01,2013-06-28 06:21:00,
2013-06-27 23:26:00,58.4,56.1,30.14,WSW,239,0.0,0.0,92,0.00,,CLR,0.00,VWS V14.01,2013-06-28 06:26:00,
2013-06-27 23:31:00,58.4,56.1,30.13,WSW,239,0.0,0.0,92,0.00,,CLR,0.00,VWS V14.01,2013-06-28 06:31:00,
2013-06-27 23:36:00,58.4,56.1,30.14,WSW,239,0.0,0.0,92,0.00,,CLR,0.00,VWS V14.01,2013-06-28 06:36:00,
2013-06-27 23:41:00,58.4,56.1,30.14,WSW,239,0.0,0.0,92,0.00,,CLR,0.00,VWS V14.01,2013-06-28 06:41:00,
2013-06-27 23:46:00,58.6,56.3,30.13,WSW,239,0.0,0.0,92,0.00,,CLR,0.00,VWS V14.01,2013-06-28 06:46:00,
2013-06-27 23:51:00,58.4,56.1,30.14,WSW,239,0.0,0.0,92,0.00,,CLR,0.00,VWS V14.01,2013-06-28 06:51:00,
2013-06-27 23:56:00,58.3,56.0,30.14,WSW,239,0.0,0.0,92,0.00,,CLR,0.00,VWS V14.01,2013-06-28 06:56:00,